Change the Weather History Date:

Friday, April 26, 2013

  Actual Average (KISN) Record (KISN)
Temperature  
Mean Temperature 52 °F 48 °F  
Max Temperature 75 °F 62 °F 91 °F (1910)
Min Temperature 30 °F 34 °F 12 °F (1907)
Degree Days  
Heating Degree Days 12 17  
Month to date heating degree days 584  
Since 1 July heating degree days 8459  
Cooling Degree Days 0 0  
Month to date cooling degree days 0  
Year to date cooling degree days 0  
Growing Degree Days 2 (Base 50)    
Moisture  
Dew Point 29 °F    
Average Humidity 50    
Maximum Humidity 93    
Minimum Humidity 16    
Precipitation  
Precipitation 0.00 in 0.04 in 0.73 in (1943)
Month to date precipitation 0.82  
Year to date precipitation 2.51  
Sea Level Pressure  
Sea Level Pressure 29.94 in    
Wind  
Wind Speed 7 mph (SW)    
Max Wind Speed 18 mph    
Max Gust Speed 30 mph    
Visibility 10 miles    
Events      
T = Trace of Precipitation, MM = Missing Value Source: NWS Daily Summary

Daily Weather History Graph

Daily Weather History Graph

Search for Another Location

Airport or City:

Trip Planner

Search our weather history database for the weather conditions in past years. The results will help you decide how hot, cold, wet, or windy it might be!

Date:

Astronomy

Apr. 26, 2013 Rise Set
Actual Time 6:43 AM CDT 8:59 PM CDT
Civil Twilight 6:09 AM CDT 9:33 PM CDT
Nautical Twilight 5:27 AM CDT 10:15 PM CDT
Astronomical Twilight 4:39 AM CDT 11:03 PM CDT
Moon 10:30 PM CDT (4/26) 7:08 AM CDT (4/26)
Length of Visible Light 15h 23m
Length of Day
14h 15m
Full, 99% of the Moon is Illuminated
Apr 26
Full
May 2
Last Quarter
May 9
New
May 17
First Quarter
May 24
Full

Hourly Weather History & Observations

Time (CDT) Temp. Windchill Dew Point Humidity Pressure Visibility Wind Dir Wind Speed Gust Speed Precip Events Conditions
12:15 AM 32.0 °F - 28.4 °F 87% 29.87 in 10.0 mi Calm Calm - N/A   Clear
12:35 AM 30.2 °F - 26.6 °F 86% 29.87 in 10.0 mi Calm Calm - N/A   Clear
12:55 AM 32.0 °F 28.7 °F 28.4 °F 87% 29.87 in 10.0 mi SW 3.5 mph - N/A   Clear
1:15 AM 30.2 °F - 26.6 °F 86% 29.87 in 10.0 mi Calm Calm - N/A   Clear
1:35 AM 30.2 °F 26.7 °F 26.6 °F 86% 29.88 in 10.0 mi SW 3.5 mph - N/A   Clear
1:55 AM 32.0 °F - 26.6 °F 80% 29.89 in 10.0 mi Calm Calm - N/A   Clear
2:15 AM 30.2 °F 26.7 °F 26.6 °F 86% 29.89 in 10.0 mi SSW 3.5 mph - N/A   Clear
2:35 AM 32.0 °F 27.5 °F 26.6 °F 80% 29.89 in 10.0 mi SW 4.6 mph - N/A   Clear
2:55 AM 32.0 °F 27.5 °F 28.4 °F 87% 29.89 in 10.0 mi SSW 4.6 mph - N/A   Clear
3:15 AM 32.0 °F 27.5 °F 28.4 °F 87% 29.89 in 10.0 mi WSW 4.6 mph - N/A   Clear
3:35 AM 32.0 °F - 28.4 °F 87% 29.89 in 10.0 mi Calm Calm - N/A   Clear
3:55 AM 32.0 °F 27.5 °F 26.6 °F 80% 29.89 in 10.0 mi SW 4.6 mph - N/A   Clear
4:15 AM 30.2 °F 24.3 °F 26.6 °F 86% 29.90 in 10.0 mi SW 5.8 mph - N/A   Clear
4:35 AM 30.2 °F 25.4 °F 26.6 °F 86% 29.90 in 10.0 mi SSW 4.6 mph - N/A   Clear
4:55 AM 33.8 °F 30.8 °F 26.6 °F 75% 29.91 in 10.0 mi SW 3.5 mph - N/A   Clear
5:15 AM 32.0 °F 27.5 °F 28.4 °F 87% 29.92 in 10.0 mi WSW 4.6 mph - N/A   Clear
5:35 AM 32.0 °F 24.8 °F 28.4 °F 87% 29.92 in 10.0 mi SW 8.1 mph - N/A   Clear
5:55 AM 32.0 °F 24.8 °F 28.4 °F 87% 29.93 in 10.0 mi SW 8.1 mph - N/A   Clear
6:15 AM 32.0 °F 23.6 °F 30.2 °F 93% 29.93 in 10.0 mi SW 10.4 mph - N/A   Clear
6:55 AM 32.0 °F 25.6 °F 30.2 °F 93% 29.94 in 10.0 mi WSW 6.9 mph - N/A   Clear
7:15 AM 32.0 °F 24.8 °F 30.2 °F 93% 29.95 in 10.0 mi WSW 8.1 mph - N/A   Clear
7:35 AM 35.6 °F 28.0 °F 30.2 °F 81% 29.95 in 10.0 mi WSW 10.4 mph - N/A   Clear
7:55 AM 35.6 °F 28.6 °F 32.0 °F 87% 29.96 in 10.0 mi WSW 9.2 mph - N/A   Clear
8:15 AM 37.4 °F 30.3 °F 32.0 °F 81% 29.96 in 10.0 mi SW 10.4 mph - N/A   Clear
8:35 AM 41.0 °F 33.9 °F 32.0 °F 70% 29.97 in 10.0 mi SW 12.7 mph - N/A   Clear
8:55 AM 44.6 °F 39.7 °F 32.0 °F 61% 29.98 in 10.0 mi SW 9.2 mph - N/A   Clear
9:15 AM 48.2 °F - 32.0 °F 54% 29.98 in 10.0 mi SW 11.5 mph - N/A   Clear
9:35 AM 50.0 °F - 32.0 °F 50% 29.99 in 10.0 mi SW 11.5 mph - N/A   Clear
9:55 AM 53.6 °F - 32.0 °F 44% 29.99 in 10.0 mi SW 12.7 mph - N/A   Clear
10:15 AM 55.4 °F - 32.0 °F 41% 29.99 in 10.0 mi SW 10.4 mph - N/A   Clear
10:35 AM 57.2 °F - 32.0 °F 38% 30.00 in 10.0 mi SW 11.5 mph - N/A   Clear
10:55 AM 59.0 °F - 32.0 °F 36% 30.00 in 10.0 mi SW 12.7 mph - N/A   Clear
11:15 AM 62.6 °F - 32.0 °F 32% 30.00 in 10.0 mi WSW 10.4 mph 16.1 mph N/A   Clear
11:35 AM 66.2 °F - 32.0 °F 28% 30.00 in 10.0 mi SW 10.4 mph - N/A   Clear
11:55 AM 66.2 °F - 32.0 °F 28% 30.00 in 10.0 mi SW 12.7 mph - N/A   Clear
12:15 PM 68.0 °F - 28.4 °F 23% 30.00 in 10.0 mi SW 12.7 mph - N/A   Clear
12:35 PM 68.0 °F - 26.6 °F 21% 30.00 in 10.0 mi WSW 13.8 mph 23.0 mph N/A   Clear
12:55 PM 69.8 °F - 26.6 °F 20% 29.99 in 10.0 mi SW 15.0 mph 23.0 mph N/A   Clear
1:15 PM 71.6 °F - 26.6 °F 19% 29.99 in 10.0 mi WSW 11.5 mph 17.3 mph N/A   Clear
1:35 PM 71.6 °F - 26.6 °F 19% 29.98 in 10.0 mi West 12.7 mph 20.7 mph N/A   Clear
1:55 PM 71.6 °F - 26.6 °F 19% 29.97 in 10.0 mi West 17.3 mph 26.5 mph N/A   Clear
2:15 PM 71.6 °F - 26.6 °F 19% 29.96 in 10.0 mi WSW 17.3 mph 21.9 mph N/A   Clear
2:35 PM 71.6 °F - 24.8 °F 17% 29.96 in 10.0 mi WSW 16.1 mph 24.2 mph N/A   Clear
2:55 PM 73.4 °F - 24.8 °F 16% 29.96 in 10.0 mi West 16.1 mph 27.6 mph N/A   Clear
3:15 PM 73.4 °F - 24.8 °F 16% 29.96 in 10.0 mi West 13.8 mph 25.3 mph N/A   Clear
3:35 PM 73.4 °F - 24.8 °F 16% 29.95 in 10.0 mi SW 17.3 mph 24.2 mph N/A   Clear
3:55 PM 73.4 °F - 26.6 °F 18% 29.95 in 10.0 mi WSW 12.7 mph 26.5 mph N/A   Clear
4:15 PM 73.4 °F - 26.6 °F 18% 29.95 in 10.0 mi West 17.3 mph 29.9 mph N/A   Clear
4:35 PM 73.4 °F - 28.4 °F 19% 29.95 in 10.0 mi WSW 18.4 mph 27.6 mph N/A   Clear
4:55 PM 73.4 °F - 28.4 °F 19% 29.94 in 10.0 mi WSW 17.3 mph 25.3 mph N/A   Clear
5:15 PM 73.4 °F - 30.2 °F 20% 29.94 in 10.0 mi West 15.0 mph 24.2 mph N/A   Clear
5:35 PM 75.2 °F - 30.2 °F 19% 29.93 in 10.0 mi SW 18.4 mph 25.3 mph N/A   Clear
5:55 PM 73.4 °F - 28.4 °F 19% 29.93 in 10.0 mi West 16.1 mph 26.5 mph N/A   Partly Cloudy
6:15 PM 73.4 °F - 26.6 °F 18% 29.93 in 10.0 mi West 18.4 mph 27.6 mph N/A   Clear
6:35 PM 73.4 °F - 26.6 °F 18% 29.94 in 10.0 mi WSW 16.1 mph - N/A   Clear
6:55 PM 73.4 °F - 28.4 °F 19% 29.93 in 10.0 mi West 15.0 mph 21.9 mph N/A   Clear
7:15 PM 73.4 °F - 28.4 °F 19% 29.93 in 10.0 mi West 13.8 mph 17.3 mph N/A   Clear
7:35 PM 71.6 °F - 28.4 °F 20% 29.92 in 10.0 mi WSW 11.5 mph - N/A   Clear
7:55 PM 71.6 °F - 28.4 °F 20% 29.92 in 10.0 mi WSW 9.2 mph - N/A   Clear
8:15 PM 69.8 °F - 32.0 °F 25% 29.92 in 10.0 mi WSW 8.1 mph - N/A   Clear
8:35 PM 66.2 °F - 32.0 °F 28% 29.92 in 10.0 mi WSW 5.8 mph - N/A   Clear
8:55 PM 62.6 °F - 32.0 °F 32% 29.92 in 10.0 mi SSW 6.9 mph - N/A   Clear
9:15 PM 59.0 °F - 32.0 °F 36% 29.93 in 10.0 mi SSW 9.2 mph - N/A   Clear
9:35 PM 55.4 °F - 32.0 °F 41% 29.93 in 9.0 mi SSW 4.6 mph - N/A   Clear
9:55 PM 51.8 °F - 32.0 °F 47% 29.94 in 10.0 mi SSW 6.9 mph - N/A   Clear
10:15 PM 50.0 °F - 32.0 °F 50% 29.94 in 10.0 mi SSW 5.8 mph - N/A   Clear
10:35 PM 50.0 °F - 32.0 °F 50% 29.94 in 10.0 mi South 4.6 mph - N/A   Clear
10:55 PM 48.2 °F - 32.0 °F 54% 29.93 in 8.0 mi SSW 3.5 mph - N/A   Clear
11:15 PM 48.2 °F - 32.0 °F 54% 29.93 in 10.0 mi SW 3.5 mph - N/A   Clear
11:35 PM 46.4 °F 43.5 °F 32.0 °F 57% 29.93 in 10.0 mi SW 5.8 mph - N/A   Clear
11:55 PM 46.4 °F 42.4 °F 32.0 °F 57% 29.92 in 10.0 mi SSW 8.1 mph - N/A   Clear